Regional Weather Roundup
Issued by NWS

Home | Current Version | Previous Version | Graphics & Text | Print | Product List | Glossary Off
Versions: 1 2 3 4 5 6 7 8 9 10 11 12 13 14 15 16 17 18 19 20 21 22 23 24 25 26 27 28 29 30 31 32 33 34 35 36 37 38 39 40 41 42 43 44 45 46 47 48 49 50

000
ASUS43 KDMX 031307
RWRIA

WEATHER ROUNDUP FOR IOWA
NATIONAL WEATHER SERVICE DES MOINES IA
800 AM CDT SUN MAY 03 2015

NOTE: "FAIR" INDICATES FEW OR NO CLOUDS BELOW 12,000 FEET WITH NO
SIGNIFICANT WEATHER AND/OR OBSTRUCTIONS TO VISIBILITY.

* - THESE STATIONS ARE NOT NWS STATIONS...THUS NOT UNDER NWS
QUALITY CONTROL.  THEY ALSO DO NOT REPORT WEATHER SUCH
AS PRECIPITATION OR FOG.

IAZ001>003-012>014-020>022-031>034-043>046-031400-
   NORTHWEST IOWA

CITY           SKY/WX    TMP DP  RH WIND       PRES   REMARKS
CARROLL *      SUNNY     61  57  88 S10       29.76S
CHEROKEE *     SUNNY     61  52  72 CALM      29.75R
DENISON *      SUNNY     63  59  88 S12       29.74S
LE MARS *      SUNNY     63  54  72 CALM      29.75R
ORANGE CITY *  SUNNY     57  50  77 E3        29.75R
SHELDON *      SUNNY     59  54  82 SE7       29.74S
SIOUX CITY     MOSUNNY   60  52  74 E8        29.73R
SPENCER        SUNNY     58  54  86 SE6       29.77R
STORM LAKE *   SUNNY     59  52  77 S8        29.78R
$$

IAZ055>058-069>071-079>083-090>094-031400-
   SOUTHWEST IOWA

CITY           SKY/WX    TMP DP  RH WIND       PRES   REMARKS
ATLANTIC *     SUNNY     64  59  82 S15       29.77S
AUDUBON *      SUNNY     63  57  82 S7        29.78S
CLARINDA *     SUNNY     63  57  82 S8        29.81S
COUNCIL BLFS * SUNNY     63  61  94 S12       29.77R
CRESTON *      SUNNY     61  57  88 S14       29.82R
HARLAN  *      SUNNY     64  63  94 S16       29.79R
LAMONI         PTSUNNY   59  53  80 S9        29.83F
RED OAK *      SUNNY     64  57  77 S9        29.78S
SHENANDOAH *   SUNNY     64  57  77 S15       29.79S
$$

IAZ047>049-059>061-072>074-084-031400-
   CENTRAL IOWA

CITY           SKY/WX    TMP DP  RH WIND       PRES   REMARKS
AMES           CLOUDY    58  54  86 CALM      29.80R
ANKENY *       SUNNY     61  57  88 E5        29.81R
CHARITON *     MOSUNNY   61  55  82 S15       29.83R
DES MOINES     CLOUDY    63  55  75 SW10      29.80R
GRINNELL*      CLOUDY    59  54  82 S7        29.84R
KNOXVILLE *    SUNNY     63  54  72 SW13G18   29.81R
MARSHALLTOWN   CLOUDY    56  52  86 SE8       29.81R
PELLA *        CLOUDY    61  57  88 SW6       29.84R
PERRY *          N/A     63  57  82 S9        29.78R
$$

IAZ004>006-015-016-023>025-035-036-031400-
   NORTH CENTRAL IOWA

CITY           SKY/WX    TMP DP  RH WIND       PRES   REMARKS
ALGONA *       SUNNY     59  54  82 S9        29.79R
CLARION *      SUNNY     59  54  82 S12       29.80R
ESTHERVILLE    PTSUNNY   55  52  89 S10       29.77R
FORT DODGE *   MOSUNNY   57  52  82 SE5       29.79S
MASON CITY     CLOUDY    59  53  80 S12       29.80R
FOREST CITY *  SUNNY     59  52  77 S14       29.79R
IOWA FALLS *     N/A     57  52  82 SE12      29.81R
$$

IAZ007>011-017>019-026>030-037>042-050>054-066-031400-
   NORTHEAST IOWA

CITY           SKY/WX    TMP DP  RH WIND       PRES   REMARKS
CEDAR RAPIDS   CLOUDY    61  52  72 S17       29.85F
CHARLES CITY * SUNNY     57  55  94 S12       29.81R
CLINTON *        N/A     61  54  77 S12       29.94S
DECORAH *      SUNNY     59  50  72 S9        29.82R
DUBUQUE        CLOUDY    57  51  80 S14       29.87F
MONTICELLO *   MOSUNNY   63  54  72 SE15G21   29.86S
OELWEIN *      SUNNY     61  52  72 S16       29.83F
WATERLOO       CLOUDY    59  52  77 S16       29.82S
$$

IAZ064-065-067-068-078-031400-
   EAST CENTRAL IOWA

CITY           SKY/WX    TMP DP  RH WIND       PRES   REMARKS
DAVENPORT      CLOUDY    61  50  67 S13       29.93R
IOWA CITY      CLOUDY    59  52  77 SE12      29.89F
MT. PLEASANT * PTSUNNY   61  50  67 S14       29.91R
MUSCATINE *    MOSUNNY   59  52  77 SE6       29.92S
QUAD CITIES    CLOUDY    59  52  77 S6        29.93R
$$

IAZ062-063-075>077-085>089-095>099-031400-
   SOUTHEAST IOWA

CITY           SKY/WX    TMP DP  RH WIND       PRES   REMARKS
BURLINGTON     MOSUNNY   61  49  64 S13       29.92S
FAIRFIELD *    PTSUNNY   59  52  77 S14       29.88F
FORT MADISON * MOSUNNY   63  50  63 S13       29.94R
KEOKUK *       MOSUNNY   63  50  63 S15G21    29.93R
OSKALOOSA *      N/A     57  54  88 S21       29.82F
CENTERVILLE *  MOSUNNY   59  55  88 SE8       29.88F
OTTUMWA        LGT RAIN  58  54  86 S21       29.82F
WASHINGTON *   PTSUNNY   61  59  94 S14       29.88S
$$

ABBREVIATIONS USED IN REMARKS
   TC - TEMPERATURES IN CELSIUS
  WCI - WIND CHILL INDEX
   HX - HEAT INDEX
  VSB - VISIBILITY
$$




USA.gov is the U.S. government's official web portal to all federal, state and local government web resources and services.